メトカーフ-ブルーイントン彗星

97P/Metcalf-Brewington (2011)

English version
Home page
Updated on January 8, 2012

---------------------------------------------------------------------

・ プロフィール

・ 写真集

・ 軌道要素

Epoch 2011 Aug. 27.0 TT = JDT 2455800.5
T 2011 Aug. 20.95952 TT                                 MPC
q   2.5966638            (2000.0)            P               Q
n   0.09364426     Peri.  228.21253     +0.59920867     -0.80010734
a   4.8026610      Node   185.20798     +0.79493092     +0.59874420
e   0.4593281      Incl.   17.88630     +0.09504634     +0.03651885
P  10.5
From 139 observations 1991 Jan. 8-2011 Nov. 4, mean residual 0".8.
     Nongravitational parameters Y1 = -0.09, Y2 = -0.0529.

・ 星図

・ 光度変化

        m1 = 8.7 + 5 logΔ + 20 log r

---------------------------------------------------------------------

軌道要素はM.P.E.C. 2011-V31に掲載されたものです。
星図はステラナビゲータ Ver.8 (アストロアーツ) で作成したものです。
光度グラフはComet for Windowsで作成したものです。

---------------------------------------------------------------------

Copyright(C) Seiichi Yoshida (comet@aerith.net). All rights reserved.